Starlink 33743

operational
NORAD ID: 63440 Int'l Des: 2025-069 Owner: SPXS Country: US Constellation: starlink
LEOCIRCULAR

关于 Starlink 33743

正在加载描述...

实时位置

正在加载3D地球...

即将过境

高度历史

Altitude vs Time

uPlot chart will show altitude changes over time

两行轨道根数

1 63440U 25069H 25258.65056337 .00027022 00000-0 92104-3 0 9998
2 63440 53.1572 235.6475 0003341 82.3603 277.7777 15.30201062 26492
Epoch: Sep 15, 2025 • Age: 20 hours

当前状态

高度 489.7 km
速度 7.62 km/s
星下点 -39.51°S, 21.7°E
发射日期 Apr 4, 2025
运行时间 0.4 years
类型 internet

技术详情

分类 Payload
质量 575.00 kg
干质量 530.00 kg
总质量 575.00 kg
长度 0.30 m
直径 4.10 m
跨度 29.00 m
形状 Box + pan
制造商 SPXS
平台类型 Starlink V2MO
阶段状态 In Orbit
所有者/国家 SPXS/US

大型星座

Loading constellations...